Temperature
23 24 25 26 26 26 24 21 22 22 22 22 22 22 22 22 22 22 22 21 22 21 21 21 20 20 19 19 19 19 18 18 18 17 17 17 17 16 16 16 16 16 16 15
24 25 25 25 26 26 25 24 23 23 23 22 23 23 22 22 22 21 21 21 21 21 21 20 20 19 19 19 18 18 18 18 17 17 17 16 16 16 16 16 16 15 15 15
21 23 24 24 24 25 25 24 24 23 22 21 21 22 22 22 22 22 21 21 21 21 21 20 20 19 19 18 18 18 18 17 17 16 16 16 16 16 16 15 15 15 15 15
19 22 23 22 23 25 25 24 23 23 22 22 22 22 23 23 22 22 22 21 21 20 20 20 19 19 19 18 18 18 17 17 16 16 16 16 15 15 15 15 15 15 14 14
17 20 21 23 24 24 24 22 22 22 22 22 22 21 21 22 22 22 22 21 21 21 20 20 19 19 18 18 18 17 17 17 16 16 16 15 15 15 15 15 14 14 14 14
18 20 21 22 23 25 23 21 22 21 21 21 21 19 20 21 22 22 21 21 21 20 20 19 19 18 18 18 17 17 17 16 16 15 15 15 15 15 14 14 14 14 13 13
18 19 20 21 23 24 22 21 22 22 22 22 21 21 21 21 22 21 21 20 20 20 19 19 18 18 18 18 17 17 16 16 15 15 15 15 14 14 14 14 14 13 13 13
17 19 19 21 22 21 20 22 22 22 22 22 22 22 21 21 21 21 20 20 20 19 19 18 18 18 17 17 16 16 15 15 15 15 14 14 14 14 13 13 13 13 13 12
17 18 19 20 21 21 22 22 22 22 22 22 21 20 20 20 20 20 20 19 19 19 18 17 17 17 17 16 16 15 15 15 14 14 14 14 13 13 13 13 13 12 12 12
16 17 18 20 21 22 22 22 22 23 22 22 21 20 20 19 19 19 19 19 19 18 18 17 17 16 16 16 15 15 15 14 14 14 13 13 13 13 13 13 13 12 12 11
16 17 18 20 20 21 21 22 22 22 22 21 20 20 19 19 19 18 18 18 18 18 17 17 16 16 16 15 15 14 14 13 13 13 13 13 13 12 12 12 12 12 11 11
15 17 16 18 20 21 21 21 21 21 20 20 20 19 19 18 18 18 18 18 17 17 17 16 16 15 15 15 14 14 14 13 13 13 13 13 12 12 12 11 11 11 11 11
18 18 18 19 19 20 20 20 20 20 20 19 19 19 18 18 17 18 17 17 17 17 16 16 15 15 14 14 14 14 14 13 13 13 13 12 12 12 12 11 11 11 10 10
18 18 18 18 19 19 19 19 19 19 19 19 18 18 18 17 17 17 17 17 16 16 16 15 15 14 14 14 14 13 13 13 13 13 12 12 12 12 12 11 11 10 10 10
17 18 17 18 18 18 18 18 18 18 18 17 18 17 17 17 16 16 16 16 15 15 15 14 14 14 13 13 13 13 13 12 12 12 12 12 11 11 11 11 10 10 10 10
17 17 17 17 17 17 17 17 17 17 17 17 17 17 16 16 16 15 15 15 15 15 14 14 14 13 13 13 13 12 12 12 12 12 12 11 11 11 11 10 10 10 10 9
16 16 16 16 17 16 17 17 17 17 17 16 16 16 16 15 15 15 15 14 14 14 14 14 13 13 13 13 12 12 12 12 12 11 11 11 11 11 10 10 10 10 9 9
16 16 16 16 16 16 16 16 17 17 16 16 16 15 15 15 15 14 14 14 14 13 13 13 13 13 12 12 12 12 12 12 11 11 11 11 11 10 10 10 10 10 9 9
16 16 16 16 16 16 16 16 16 16 16 15 15 15 15 14 14 14 14 13 13 13 13 13 12 12 12 12 12 12 12 12 11 11 11 11 10 10 10 10 10 9 9 9
15 15 15 15 15 16 15 15 15 15 15 15 15 14 14 14 13 13 13 13 13 13 12 12 12 12 12 12 12 12 11 11 11 11 11 10 10 10 10 10 9 9 9 9
15 15 15 15 15 15 15 15 15 15 14 14 14 14 13 13 13 13 13 12 12 12 12 12 12 12 12 12 11 11 11 11 11 11 11 10 10 10 10 10 9 9 9 8
14 14 14 14 14 14 14 14 14 14 14 13 13 13 13 13 12 12 12 12 12 12 11 11 11 11 11 11 11 11 11 11 11 11 10 10 10 10 9 9 9 9 8 8
13 13 13 13 13 13 13 13 13 13 13 13 13 13 12 12 12 12 11 11 11 11 11 11 11 11 11 11 11 11 11 11 11 10 10 10 10 10 9 9 9 8 8 8
13 13 13 12 13 13 13 13 13 13 13 12 12 12 12 12 11 11 11 11 11 11 11 11 11 11 11 11 11 11 10 10 10 10 10 10 10 9 9 9 9 8 8 8
12 12 12 12 12 12 12 12 12 12 12 12 11 11 11 11 11 11 11 10 10 10 10 10 10 10 10 10 10 10 10 10 10 10 10 9 9 9 9 9 8 8 8 8
11 11 11 12 12 12 12 12 12 11 11 11 11 11 11 10 10 10 10 10 10 10 10 10 10 10 10 10 10 10 10 10 10 10 9 9 9 9 9 8 8 8 8 7
11 11 11 11 11 11 11 11 11 11 11 11 10 10 10 10 10 10 10 10 10 10 10 10 10 10 10 10 10 9 9 9 9 9 9 9 9 9 8 8 8 8 8 7
Wind_Speed
5 4 2 3 5 6 6 9 8 8 8 9 9 10 10 10 11 11 11 10 10 9 9 9 9 8 8 7 7 7 8 7 6 6 6 6 5 5 4 4 4 4 5 5
1 2 3 3 5 6 6 6 6 6 6 7 6 7 8 10 14 13 12 11 10 10 10 10 9 9 9 8 7 7 8 7 7 6 6 6 5 5 5 5 5 5 6 6
1 3 4 4 5 5 4 4 7 8 9 6 8 9 9 9 11 13 13 12 11 11 10 10 10 10 9 8 8 8 7 7 6 6 6 5 6 6 6 6 6 6 6 6
3 3 4 9 5 3 4 2 3 5 7 10 11 10 7 8 10 11 11 11 11 10 10 9 9 9 9 9 8 8 7 6 6 6 7 6 7 7 6 5 6 6 6 6
4 3 4 6 4 1 3 1 1 6 7 8 10 9 4 4 8 10 10 10 10 10 10 10 11 11 11 9 8 7 7 6 6 6 7 7 7 6 5 6 6 6 5 6
5 4 5 7 7 3 5 0 2 6 10 10 10 6 5 6 8 10 9 9 10 11 11 11 10 11 11 9 8 7 6 6 6 6 7 7 7 6 6 6 7 7 7 7
4 3 6 7 7 2 5 7 4 6 9 8 6 6 7 8 8 11 11 11 12 12 11 10 10 11 10 9 7 7 6 6 6 6 7 7 6 6 7 7 7 6 7 7
5 3 7 6 4 3 5 3 5 6 7 7 7 9 9 10 11 12 13 12 13 12 10 9 10 11 10 8 7 7 8 7 7 6 6 7 7 6 6 7 7 6 6 6
6 6 5 2 2 1 3 5 4 6 7 10 10 10 10 9 10 10 12 12 11 12 11 8 8 10 10 7 8 9 9 8 8 8 7 6 7 7 6 5 5 4 4 4
2 1 1 2 3 4 4 5 5 9 10 10 11 10 10 10 10 10 10 11 11 12 12 9 7 8 9 8 9 10 10 9 8 8 8 7 6 5 5 4 4 5 4 4
2 1 3 4 4 4 6 7 8 9 9 9 12 11 10 9 10 10 9 9 10 11 11 10 9 9 8 8 10 10 9 8 8 8 8 8 7 6 5 3 3 5 4 4
3 4 3 2 1 4 6 5 6 9 9 8 10 11 10 8 8 9 10 10 10 10 11 10 10 9 8 8 10 11 9 8 7 7 6 7 8 7 11 8 8 8 7 6
3 2 2 1 0 3 5 5 5 8 11 10 8 10 10 9 8 9 10 11 11 11 11 10 9 8 7 8 9 10 10 8 7 6 7 6 6 7 6 6 10 10 8 7
1 3 3 2 1 3 7 7 7 8 9 10 9 10 10 10 9 10 10 10 11 11 10 10 9 8 7 7 8 9 9 9 8 6 6 6 6 6 6 6 4 3 5 6
1 2 2 1 3 5 7 9 9 8 8 8 9 10 10 10 10 9 9 10 10 10 9 9 9 7 7 8 9 9 8 6 6 6 6 6 6 5 5 5 4 3 2 3
1 3 4 4 4 5 7 8 8 7 7 8 8 9 9 9 9 9 9 10 11 10 9 8 8 6 7 8 8 7 6 9 8 6 6 5 5 5 5 5 4 4 3 2
2 2 4 4 4 5 6 7 8 8 8 9 9 9 10 11 10 9 8 8 8 8 7 8 7 6 6 7 7 6 6 8 10 7 6 6 6 5 5 5 4 4 2 3
4 4 5 6 6 6 6 6 7 8 8 9 10 10 10 11 10 9 9 9 9 7 5 6 6 6 6 6 6 5 6 6 6 6 6 6 5 5 5 5 5 4 3 3
1 2 3 4 5 7 6 6 7 7 8 9 10 10 9 9 9 9 9 9 9 7 4 5 8 7 6 6 7 5 6 6 6 5 5 7 6 5 5 5 5 5 5 4
4 4 5 6 6 7 7 6 7 8 8 9 10 10 10 9 9 8 8 7 5 4 5 6 6 6 5 6 7 5 6 7 6 6 5 6 6 5 5 5 5 5 5 4
5 6 6 6 6 7 7 7 9 8 8 9 10 10 9 8 9 8 8 6 2 4 6 7 5 4 4 5 6 5 6 6 6 6 6 6 5 5 5 5 5 5 5 4
5 6 6 6 6 6 6 6 7 8 9 9 9 9 10 9 8 7 5 5 5 6 5 4 4 5 6 7 5 5 5 6 6 5 5 5 5 5 5 5 5 4 4 4
5 5 5 5 6 6 6 6 7 8 9 9 9 9 9 7 7 7 6 3 5 7 5 4 6 8 9 6 5 5 5 5 5 5 5 5 5 5 5 5 4 4 4 4
5 5 5 5 6 8 7 6 7 7 7 7 7 8 8 7 5 3 5 7 9 9 5 6 9 9 8 4 4 5 4 4 4 4 5 5 5 5 4 4 4 4 4 5
5 5 5 6 6 6 6 7 8 8 8 6 7 7 6 5 6 5 5 6 8 8 5 6 9 8 5 4 4 4 4 4 4 4 4 5 5 4 4 4 4 4 4 4
4 4 4 5 5 5 5 6 6 6 6 6 5 5 5 5 6 6 5 6 7 7 5 4 5 5 4 4 4 4 4 4 4 4 5 5 5 5 4 4 4 4 4 4
5 4 5 5 4 4 5 6 6 6 6 7 6 5 6 6 6 6 6 5 5 5 4 4 4 4 4 4 3 3 3 3 4 4 4 4 4 4 4 4 4 4 5 5
Wind_Direction
191 208 183 219 233 218 185 181 180 214 201 213 197 179 173 159 149 144 143 148 149 145 141 141 134 132 130 129 126 122 118 118 119 117 113 102 97 93 87 78 67 54 51 43
360 355 9 315 267 235 212 184 175 172 221 221 176 142 148 159 153 150 156 159 152 145 142 142 138 135 130 128 124 119 116 120 120 116 111 106 103 96 87 77 68 62 55 52
243 338 29 299 250 216 218 204 172 190 213 172 146 151 160 161 159 156 160 160 154 152 150 146 141 136 132 128 118 114 116 119 120 121 116 112 108 95 88 83 75 67 59 60
119 75 223 246 254 194 186 213 185 179 177 164 162 158 148 154 157 157 160 157 154 151 147 139 132 129 125 122 120 119 116 114 115 118 114 107 101 98 94 87 81 74 63 60
117 157 271 290 308 229 174 274 223 145 134 126 121 101 86 156 154 156 155 155 151 148 141 134 133 132 126 123 123 120 118 119 121 123 118 114 110 105 99 93 84 74 67 62
121 147 220 254 286 275 121 82 279 136 139 140 124 132 192 181 150 141 136 140 137 134 128 130 135 132 127 129 128 129 128 126 124 123 123 123 119 111 102 97 89 81 68 58
144 180 253 262 296 25 134 209 213 140 140 138 144 166 163 151 136 133 133 135 133 131 131 135 135 130 128 132 139 140 125 122 122 120 121 120 114 109 108 102 94 84 76 61
147 173 248 291 13 109 202 206 147 130 123 116 121 123 127 131 132 131 132 132 132 129 127 130 132 130 132 139 139 128 119 115 113 111 116 116 111 106 106 107 100 88 80 66
176 202 235 299 120 203 160 120 119 122 121 120 119 122 121 124 127 128 132 133 131 129 125 124 127 129 131 136 131 125 117 108 100 92 87 96 107 110 103 100 105 98 90 82
113 230 307 30 52 38 77 101 118 128 130 127 127 129 126 127 129 128 129 132 130 128 128 128 124 123 129 132 127 123 118 112 105 98 87 76 79 89 101 103 110 112 107 100
102 158 40 17 44 53 60 68 92 110 119 127 127 126 127 130 131 132 132 131 133 134 134 132 125 120 124 128 126 121 117 114 109 105 104 92 78 65 84 88 128 132 130 127
203 220 171 235 296 89 83 83 103 112 110 116 126 126 119 119 126 128 130 129 129 128 129 128 126 124 122 125 125 125 123 119 118 119 113 111 106 82 54 65 80 95 113 121
194 215 169 208 143 108 100 95 100 117 123 121 117 120 118 119 123 124 126 129 131 133 132 130 128 129 131 130 127 127 131 131 128 129 132 131 126 120 104 61 61 70 86 99
115 88 53 13 86 104 110 104 95 103 112 119 119 118 116 116 121 123 128 133 132 130 131 131 129 133 137 131 126 127 130 133 133 135 139 140 137 133 130 128 110 63 47 69
345 106 140 122 86 96 109 111 106 106 111 114 119 121 121 123 127 129 129 128 126 124 128 132 134 139 138 131 130 131 131 136 135 135 136 137 136 130 126 124 121 115 85 51
104 87 95 102 111 117 119 124 130 136 134 128 125 125 124 124 124 123 126 131 133 136 139 138 141 146 140 135 134 133 136 141 142 140 136 135 135 135 132 129 127 129 131 125
155 141 135 134 139 143 143 143 147 147 142 137 135 131 127 123 120 120 122 124 128 131 135 139 145 142 138 139 136 138 140 149 145 141 143 144 141 141 144 141 139 141 148 148
182 185 177 167 148 133 134 135 132 137 141 139 132 127 128 131 134 133 129 121 115 111 119 134 136 131 130 133 136 138 141 142 140 142 143 144 145 147 146 145 147 143 134 130
137 152 143 135 134 130 129 131 130 128 128 130 130 130 129 130 131 130 126 122 125 127 135 131 127 125 128 134 133 134 138 136 134 135 138 141 141 141 144 148 149 148 144 140
106 104 103 106 107 118 123 126 124 119 121 124 125 123 124 127 129 129 125 124 137 149 149 139 131 130 134 137 131 131 136 138 136 135 132 134 136 136 140 145 147 149 149 150
98 98 102 106 106 108 113 118 120 120 123 127 130 131 130 130 129 129 129 126 127 129 131 129 127 130 132 131 125 124 127 132 136 139 137 137 137 138 140 144 146 152 156 157
97 100 101 103 106 106 107 113 119 122 120 119 121 125 126 126 124 121 123 138 145 132 127 123 122 126 127 123 120 122 126 133 139 141 138 140 144 146 146 147 151 156 159 163
98 98 99 105 112 116 109 109 115 121 123 125 127 130 133 133 137 139 139 144 139 128 123 123 127 122 116 108 114 120 124 130 136 141 146 148 150 152 152 151 154 157 158 164
95 99 105 108 109 109 108 109 110 114 116 117 121 127 129 128 117 115 134 139 137 129 124 128 128 125 119 113 119 126 129 133 138 143 148 148 146 148 151 152 156 167 171 170
98 97 99 105 108 115 117 115 110 109 111 111 113 116 120 127 134 135 131 135 137 130 125 131 132 128 120 111 115 123 129 134 138 139 138 138 140 143 149 154 162 170 173 176
99 102 107 109 113 119 120 120 120 121 121 119 115 115 113 115 119 121 122 125 126 128 128 131 134 128 121 118 117 121 123 123 121 124 132 135 139 144 150 155 157 165 174 177
93 97 97 89 83 94 106 113 120 124 127 128 124 121 122 122 120 120 120 119 117 116 115 117 124 127 124 123 121 118 117 121 123 123 128 134 139 145 154 160 165 169 170 169
Height
1490 1487 1486 1488 1489 1490 1498 1506 1515 1512 1509 1502 1498 1499 1500 1502 1506 1509 1513 1515 1518 1520 1522 1525 1527 1529 1531 1532 1534 1534 1536 1536 1536 1537 1538 1538 1539 1539 1540 1540 1540 1539 1539 1538
1489 1484 1484 1488 1485 1486 1489 1492 1498 1500 1502 1492 1494 1497 1500 1502 1504 1508 1511 1514 1516 1519 1521 1524 1526 1528 1530 1532 1534 1535 1535 1536 1536 1537 1538 1538 1539 1539 1540 1540 1540 1539 1539 1538
1501 1490 1489 1498 1487 1484 1486 1486 1490 1498 1494 1490 1493 1496 1499 1501 1503 1505 1508 1512 1515 1517 1520 1523 1525 1528 1530 1532 1533 1535 1535 1536 1536 1537 1538 1538 1539 1539 1539 1540 1540 1540 1539 1538
1503 1499 1510 1497 1478 1477 1481 1482 1482 1482 1484 1485 1488 1492 1496 1499 1502 1505 1508 1511 1514 1517 1520 1522 1525 1528 1530 1532 1533 1534 1535 1536 1536 1537 1538 1538 1539 1539 1540 1540 1540 1540 1540 1539
1509 1510 1504 1487 1477 1477 1481 1486 1480 1481 1483 1486 1489 1494 1499 1500 1501 1503 1507 1510 1513 1517 1519 1522 1524 1527 1529 1531 1533 1534 1535 1535 1536 1537 1538 1539 1539 1540 1540 1541 1541 1541 1541 1541
1505 1508 1511 1492 1475 1473 1478 1492 1480 1479 1482 1485 1488 1499 1501 1499 1501 1503 1507 1510 1513 1516 1519 1521 1524 1526 1529 1530 1532 1533 1534 1535 1536 1537 1538 1539 1540 1540 1541 1542 1542 1542 1542 1542
1502 1504 1498 1480 1474 1473 1492 1493 1481 1480 1481 1483 1486 1490 1495 1498 1500 1502 1505 1509 1512 1515 1518 1521 1523 1526 1528 1529 1531 1532 1533 1534 1535 1537 1538 1539 1540 1542 1542 1543 1543 1543 1543 1543
1501 1505 1502 1477 1474 1480 1482 1478 1478 1480 1481 1483 1486 1489 1493 1496 1499 1501 1505 1509 1511 1514 1517 1521 1523 1525 1526 1528 1530 1531 1532 1533 1534 1537 1538 1540 1541 1542 1543 1544 1544 1544 1544 1544
1490 1492 1482 1477 1477 1477 1476 1477 1478 1480 1483 1484 1487 1490 1493 1496 1499 1502 1506 1509 1512 1514 1517 1521 1523 1525 1526 1528 1530 1531 1533 1533 1535 1537 1539 1540 1541 1542 1543 1544 1545 1545 1545 1545
1484 1482 1479 1478 1477 1477 1476 1476 1479 1481 1483 1485 1488 1490 1493 1497 1500 1503 1507 1509 1512 1515 1517 1520 1523 1525 1526 1528 1530 1532 1533 1534 1536 1538 1539 1541 1542 1543 1544 1545 1545 1545 1546 1546
1483 1481 1479 1479 1478 1479 1479 1479 1480 1482 1485 1487 1489 1492 1494 1497 1500 1503 1507 1510 1513 1515 1517 1520 1522 1524 1526 1528 1530 1532 1534 1535 1537 1539 1540 1541 1543 1544 1545 1545 1546 1547 1547 1547
1485 1481 1481 1481 1480 1480 1480 1481 1482 1483 1486 1489 1490 1492 1495 1498 1501 1504 1507 1510 1512 1515 1517 1520 1522 1524 1526 1528 1530 1532 1533 1535 1537 1539 1541 1542 1543 1544 1545 1546 1547 1547 1548 1548
1479 1479 1479 1480 1480 1481 1481 1482 1484 1485 1486 1490 1492 1494 1496 1499 1502 1505 1507 1510 1512 1515 1517 1520 1522 1524 1527 1529 1530 1532 1533 1535 1537 1539 1541 1542 1543 1544 1545 1547 1548 1548 1548 1549
1477 1478 1479 1480 1481 1481 1482 1483 1486 1488 1489 1491 1493 1495 1498 1501 1503 1505 1508 1510 1513 1515 1518 1520 1522 1525 1527 1528 1530 1532 1534 1536 1538 1540 1541 1543 1544 1545 1546 1547 1548 1548 1549 1550
1477 1478 1479 1480 1481 1482 1484 1485 1487 1489 1491 1492 1494 1496 1499 1501 1504 1507 1509 1512 1514 1516 1518 1520 1522 1525 1527 1529 1530 1532 1534 1536 1538 1540 1541 1543 1544 1546 1547 1548 1548 1549 1550 1550
1476 1477 1477 1479 1481 1483 1485 1486 1487 1490 1492 1493 1495 1498 1500 1502 1505 1507 1510 1513 1514 1516 1518 1521 1523 1525 1527 1529 1531 1533 1535 1536 1538 1540 1542 1543 1545 1546 1547 1548 1549 1549 1550 1551
1475 1476 1477 1478 1481 1483 1485 1486 1488 1490 1492 1494 1496 1499 1501 1503 1505 1508 1511 1513 1515 1517 1519 1521 1523 1525 1527 1529 1531 1533 1535 1537 1539 1540 1542 1543 1545 1546 1547 1548 1549 1550 1550 1551
1474 1475 1476 1477 1478 1481 1484 1487 1489 1491 1493 1494 1497 1499 1501 1503 1505 1508 1511 1513 1515 1518 1520 1522 1524 1525 1528 1530 1532 1533 1535 1537 1539 1540 1542 1543 1545 1546 1548 1548 1549 1550 1550 1551
1472 1474 1476 1477 1479 1480 1483 1486 1489 1491 1493 1495 1497 1499 1501 1504 1506 1508 1511 1513 1515 1517 1520 1522 1524 1526 1528 1530 1532 1534 1536 1537 1539 1540 1542 1543 1545 1547 1548 1548 1549 1550 1551 1551
1472 1473 1475 1477 1478 1480 1483 1486 1489 1491 1492 1495 1497 1499 1501 1504 1506 1509 1511 1513 1515 1517 1519 1522 1524 1526 1528 1530 1532 1534 1536 1537 1539 1541 1542 1544 1545 1546 1547 1548 1549 1550 1550 1551
1472 1473 1475 1476 1478 1481 1483 1486 1488 1490 1492 1494 1496 1498 1501 1503 1506 1508 1510 1513 1515 1518 1520 1522 1524 1526 1528 1530 1532 1534 1536 1537 1539 1541 1542 1544 1545 1546 1547 1548 1549 1550 1550 1551
1473 1474 1475 1477 1478 1481 1483 1486 1488 1490 1492 1494 1496 1498 1501 1503 1506 1508 1511 1513 1515 1517 1520 1522 1524 1526 1528 1530 1532 1534 1536 1538 1539 1541 1542 1544 1545 1546 1547 1548 1549 1549 1550 1551
1473 1474 1476 1478 1479 1481 1484 1486 1488 1490 1492 1494 1496 1498 1501 1503 1506 1508 1510 1513 1515 1518 1520 1522 1524 1527 1529 1531 1533 1535 1536 1538 1539 1541 1542 1544 1545 1546 1547 1548 1549 1549 1550 1550
1474 1475 1477 1479 1480 1482 1484 1487 1489 1491 1493 1495 1498 1499 1502 1504 1507 1509 1511 1513 1516 1518 1520 1523 1525 1528 1530 1532 1533 1535 1537 1538 1540 1541 1542 1544 1545 1546 1546 1547 1548 1549 1549 1550
1476 1477 1478 1480 1481 1483 1485 1487 1489 1492 1494 1496 1499 1501 1503 1505 1507 1509 1512 1514 1517 1519 1521 1524 1526 1528 1530 1532 1534 1535 1537 1538 1540 1541 1542 1543 1544 1545 1546 1547 1547 1548 1548 1548
1477 1478 1480 1481 1483 1484 1486 1488 1490 1492 1495 1497 1499 1502 1504 1506 1508 1510 1513 1515 1518 1520 1523 1525 1527 1529 1531 1532 1534 1536 1537 1539 1540 1541 1542 1543 1544 1545 1545 1546 1546 1547 1547 1547
1479 1480 1481 1483 1484 1486 1488 1489 1491 1493 1495 1497 1500 1502 1505 1507 1509 1512 1514 1516 1519 1521 1523 1526 1528 1530 1531 1533 1535 1536 1537 1539 1540 1541 1542 1542 1543 1544 1544 1545 1545 1545 1545 1545